星链-33940 (STARLINK-33940)

导读 | 豆包AI

STARLINK-33940是美国星链计划的一颗卫星,于2025年5月4日发射入轨,隶属于SpaceX公司主导的星链星座项目。星链计划旨在搭建覆盖全球的低轨卫星互联网星座,为全球提供高速低延迟的网络服务,这颗卫星是星链大规模组网进程中的组成部分,服务于星座扩容与全球网络覆盖能力的提升。

基本信息
目录编号:
63831
目录名称:
STARLINK-33940
国际标识:
2025-092AD
轨道中心:
EARTH
卫星名称:
星链-33940
卫星全名:
星链-33940 (STARLINK-33940)
卫星状态:
在轨 (已飞行314 天)
发射日期:
2025-05-04 UTC
国别 :
美国 (US)
星等 :
--
轨道信息
数据来源 国际轨道数据
星历时间: 2026-03-14T20:36:35+0800
7小时前
查看轨道信息
半长轴: 6861.1km
偏心率: 0.0001727
轨道倾角: 43.001°
近地点辐角 249.184°
升交点赤经 145.286°
平近点角 110.883°
近地点: 481.778km
远地点: 484.148km
周期: 94.265分钟
每日圈数: 15.276089
详细信息
固有亮度:
5
最大亮度:
2.5
卫星平台:
Starlink V1.0
覆盖范围:
全球
运营商:
太空探索技术公司
运营商所在国:
美国
制造商(研发单位):
太空探索技术公司
制造商所在国:
美国
使用方式:
暂无
卫星简介
Starlink 计划是 SpaceX 推出的全球卫星互联网项目,通过发射低轨道卫星,为全球尤其是偏远地区提供高速、低延迟的互联网服务。自 2019 年起,Starlink 已部署数千颗卫星,旨在缩小全球数字鸿沟,推动互联网普及。该项目还为军事、航空等行业提供通信支持,带来广泛经济效益。
2D轨道图
3D轨道图
轨道高度分析图
轨道倾角分析图
轨道综合分析图
查看轨道综合分析图